Regional Weather Roundup
Issued by NWS Albany, NY

Home | Current Version | Previous Version | Text Only | Print | Product List | Glossary On
Versions: 1 2 3 4 5 6 7 8 9 10 11 12 13 14 15 16 17 18 19 20 21 22 23 24 25 26 27 28 29 30 31 32 33 34 35 36 37 38 39 40 41 42 43 44 45 46 47 48 49 50
000
ASUS41 KALY 230210
RWRALY

NEW YORK STATE HOURLY WEATHER ROUNDUP
NATIONAL WEATHER SERVICE ALBANY NY
1000 PM EDT THU JUN 22 2017

NOTE: "FAIR" INDICATES FEW OR NO CLOUDS BELOW 12,000 FEET WITH NO
SIGNIFICANT WEATHER AND/OR NO OBSTRUCTIONS TO VISIBILITY.

NYZ032-033-038>043-046>054-057>066-NYZ062>081-082-084-230300-
EAST


CITY           SKY/WX    TMP DP  RH WIND       PRES   REMARKS
ALBANY         CLOUDY    74  59  59 CALM      29.86S
GLENS FALLS    NOT AVBL
POUGHKEEPSIE   CLOUDY    77  63  61 S5        29.88R
MONTGOMERY     CLOUDY    72  66  81 CALM      29.90R
WHITE PLAINS   CLEAR     72  63  73 S5        29.92R
ISLIP          MOCLDY    72  69  90 S9        29.92F
NEW YORK CITY  CLOUDY    77  69  76 S9        29.90S
CENTRAL PARK   MOCLDY    78  66  66 MISG      29.94R
$$

NYZ005>009-017-018-044>046-055-056-230300-
CENTRAL


CITY           SKY/WX    TMP DP  RH WIND       PRES   REMARKS
FULTON         CLOUDY    70  60  70 VRB3      29.83F
SYRACUSE       CLOUDY    69  60  73 SE3       29.83R
ROME           CLOUDY    69  61  75 E6        29.85S
ELMIRA         NOT AVBL
BINGHAMTON     NOT AVBL
MONTICELLO     MOCLDY    73  63  68 CALM      29.96R
$$

NYZ026>034-041>043-087-230300-
NORTH


CITY           SKY/WX    TMP DP  RH WIND       PRES   REMARKS
WATERTOWN      CLOUDY    66  61  84 CALM      29.81S
FORT DRUM      NOT AVBL
OGDENSBURG     FOG       66  62  86 CALM      29.81S VSB 1/2
MASSENA        LGT RAIN  68  60  75 CALM      29.82S
SARANAC LAKE   CLOUDY    64  56  75 CALM      29.88S
PLATTSBURGH    CLEAR     64  58  80 CALM      29.83F
$$

NYZ001>004-010>016-019>021-085-230300-
WEST


CITY           SKY/WX    TMP DP  RH WIND       PRES   REMARKS
NIAGARA FALLS  PTCLDY    77  65  66 S8        29.81S
BUFFALO        CLOUDY    74  66  76 S6        29.83F
DUNKIRK        MOCLDY    78  69  73 S13       29.84S
JAMESTOWN      PTCLDY    73  66  78 S10       29.93R
WELLSVILLE     MOCLDY    73  67  81 SW6       29.97R
ROCHESTER      MOCLDY    74  67  78 SW6       29.83S
PENN YAN       PTCLDY    75  65  70 SW10      29.88R
$$

             KEY
       WCI = WIND CHILL INDEX
       VSB = VISIBILITY
       HX  = HEAT INDEX
$$



USA.gov is the U.S. government's official web portal to all federal, state and local government web resources and services.